Regional Weather Roundup
Issued by NWS

Home | Current Version | Previous Version | Graphics & Text | Print | Product List | Glossary On
Versions: 1 2 3 4 5 6 7 8 9 10 11 12 13 14 15 16 17 18 19 20 21 22 23 24 25 26 27 28 29 30 31 32 33 34 35 36 37 38 39 40 41 42 43 44 45 46 47 48 49 50
000
ASUS43 KBIS 181710
RWRND

NORTH DAKOTA REGIONAL WEATHER ROUNDUP
NATIONAL WEATHER SERVICE BISMARCK ND
1100 AM CST SAT NOV 18 2017

NOTE: "FAIR" INDICATES FEW OR NO CLOUDS BELOW 12,000 FEET WITH NO
SIGNIFICANT WEATHER AND/OR OBSTRUCTIONS TO VISIBILITY.


NDZ001>003-009>011-017-181800-
NORTHWEST NORTH DAKOTA

CITY           SKY/WX    TMP DP  RH WIND       PRES   REMARKS
WILLISTON      SUNNY     21  10  62 W10       30.13F WCI  10
MINOT          SUNNY     19   8  62 W21       30.09R WCI   3
MINOT AFB      SUNNY     17   8  66 NW21G26   30.08R WCI   0
$$

NDZ018>021-031>035-040>046-181800-
SOUTHWEST NORTH DAKOTA

CITY           SKY/WX    TMP DP  RH WIND       PRES   REMARKS
BISMARCK       CLOUDY    25  17  72 NW17      30.13R WCI  12
DICKINSON      SUNNY     21  15  78 W13       30.09S WCI   9
GARRISON         N/A     19  11  70 NW18      30.10F WCI   4
HETTINGER ARPT SUNNY     22  13  68 NW16      30.12S WCI   8
$$

NDZ004>008-012>016-024-026-027-054-181800-
NORTHEAST NORTH DAKOTA

CITY           SKY/WX    TMP DP  RH WIND       PRES   REMARKS
GRAND FORKS    MOSUNNY   19  11  70 NW15      30.03R WCI   5
GRND FRKS AFB  PTSUNNY   18   9  68 NW17      30.03R WCI   3
DEVILS LAKE    SUNNY     14   7  73 NW24      30.02R WCI  -5
$$

NDZ022-023-025-028>030-036>039-047>053-181800-
SOUTHEAST NORTH DAKOTA

CITY           SKY/WX    TMP DP  RH WIND       PRES   REMARKS
FARGO          CLOUDY    22  12  65 NW20G26   30.03R WCI   7
JAMESTOWN      MOSUNNY   20  11  68 NW24      30.04R WCI   3
$$





USA.gov is the U.S. government's official web portal to all federal, state and local government web resources and services.